This demonstration page uses our WeatherBlox Daily Observations layout. Learn more.

Left ArrowRight Arrow

31.84235, -102.49876

Hourly Observations for May 26, 2017

Temp ( °F °C ) Dew Point ( °F °C ) Humidity (%) Winds ( mph kmh ) Pressure ( in mb ) Visibility ( mi km ) Precip ( " mm )
12:53 am 00:53 Clear 80 26.7 61 16.1 52 52 SSW 21 33 29.63 1003 10 16 0.00 0.00
1:53 am 01:53 Clear 79 26.1 61 16.1 54 54 SSW 20 31 29.63 1003 10 16 0.00 0.00
2:53 am 02:53 Clear 78 25.6 62 16.7 58 58 SSW 18 30 29.63 1004 10 16 0.00 0.00
3:53 am 03:53 Clear 77 25 62 16.7 60 60 SSW 13 20 29.65 1004 10 16 0.00 0.00
4:53 am 04:53 Clear 73 22.8 62 16.7 69 69 SW 9 15 29.67 1005 10 16 0.00 0.00
5:53 am 05:53 Clear 70 21.1 60 15.6 71 71 SW 5 7 29.69 1006 10 16 0.00 0.00
6:53 am 06:53 Sunny 70 21.1 61 16.1 73 73 SW 3 6 29.71 1006 10 16 0.00 0.00
7:53 am 07:53 Sunny 73 22.8 60 15.6 64 64 SSW 9 15 29.74 1007 10 16 0.00 0.00
8:53 am 08:53 Sunny 77 25 59 15 54 54 SSW 8 13 29.77 1008 10 16 0.00 0.00
9:53 am 09:53 Sunny 85 29.4 50 10 30 30 W 13 20 29.78 1008 10 16 0.00 0.00
10:53 am 10:53 Sunny 92 33.3 29 -1.7 10 10 WNW 18 30 29.78 1009 10 16 0.00 0.00
11:53 am 11:53 Sunny 94 34.4 16 -8.9 6 6 W 18 30 29.78 1009 10 16 0.00 0.00
12:53 pm 12:53 Sunny 95 35 19 -7.2 6 6 NW 14 22 29.78 1008 10 16 0.00 0.00
1:53 pm 13:53 Sunny 96 35.6 18 -7.8 6 6 NW 16 26 29.75 1008 10 16 0.00 0.00
2:53 pm 14:53 Sunny 96 35.6 22 -5.6 7 7 SW 10 17 29.74 1007 10 16 0.00 0.00
3:53 pm 15:53 Sunny 96 35.6 20 -6.7 6 6 WSW 15 24 29.73 1007 10 16 0.00 0.00
4:53 pm 16:53 Sunny 96 35.6 19 -7.2 6 6 SSW 10 17 29.71 1006 10 16 0.00 0.00
5:17 pm 17:17 Sunny 99 37.2 18 -7.8 5 5 WSW 17 28 29.59 1002 10 16 0.00 0.00
5:53 pm 17:53 Sunny 98 36.7 19 -7.2 6 6 W 18 30 29.70 1006 10 16 0.00 0.00
6:53 pm 18:53 Sunny 96 35.6 26 -3.3 8 8 WSW 18 30 29.70 1006 10 16 0.00 0.00
7:53 pm 19:53 Sunny 94 34.4 25 -3.9 8 8 WSW 12 19 29.70 1006 10 16 0.00 0.00
8:53 pm 20:53 Clear 89 31.7 25 -3.9 10 10 WSW 9 15 29.72 1006 10 16 0.00 0.00
9:53 pm 21:53 Clear 85 29.4 28 -2.2 13 13 WSW 8 13 29.72 1007 10 16 0.00 0.00
10:53 pm 22:53 Clear 81 27.2 30 -1.1 16 16 WSW 5 7 29.73 1007 10 16 0.00 0.00
11:53 pm 23:53 Clear 80 26.7 31 -0.6 17 17 SSW 3 6 29.73 1007 10 16 0.00 0.00

Powered by AerisWeather